Theta_e
325 325 331 340 344 346 347 347 348 349 347 347 348 347 348 347 347 348 347 348 347 349 349 349 349 349 349 349 349 349 348 348 348 349 349 349 349 349 349 349 348 349 349 348 348 348 347 347 347 347 347 347 347 347 348 348 348 348 348 353 354 356 357 357 357 357 357 357 357 357 357 357 356 355 355 356 355 356 354 353 354 354 352 354 358
320 326 332 333 340 344 345 347 347 347 348 348 348 348 348 348 348 348 347 348 349 350 350 350 349 349 349 349 350 350 349 348 348 349 349 349 349 349 349 349 349 349 350 350 349 348 347 346 345 345 345 346 346 347 347 348 351 350 353 354 355 355 357 357 356 355 353 353 353 354 355 357 357 356 355 354 355 356 353 353 353 353 349 355 357
321 321 325 327 335 340 343 344 346 347 348 348 347 348 348 347 347 348 348 349 348 348 346 347 350 349 349 349 350 351 350 350 351 349 349 349 349 352 351 349 349 350 350 350 349 348 348 347 347 345 344 344 345 346 347 348 351 351 352 353 355 355 356 356 356 355 354 353 352 351 350 352 357 357 355 355 355 356 353 352 353 353 350 356 357
315 316 320 325 331 337 339 341 342 343 344 345 346 346 347 347 347 348 347 347 348 348 348 348 346 348 348 349 349 349 349 350 349 350 350 350 350 352 351 352 350 350 350 351 350 350 349 349 348 346 345 344 343 344 345 347 350 351 352 353 353 354 355 355 354 353 353 352 351 349 348 347 351 356 355 355 356 355 352 352 353 353 355 357 356
310 312 315 320 324 333 337 338 340 340 341 342 343 344 344 345 345 345 347 347 348 348 348 347 348 348 348 348 347 347 349 351 352 351 350 351 352 351 352 352 352 351 351 351 350 350 350 349 348 347 346 348 347 345 345 346 348 350 352 352 352 353 354 355 354 353 351 349 349 348 346 346 349 353 355 355 355 355 352 352 353 356 356 357 357
307 309 312 317 322 328 335 336 338 338 339 339 340 340 340 341 343 343 344 345 346 346 347 347 347 347 347 348 348 348 347 346 347 349 350 349 352 353 352 352 351 348 349 350 350 350 350 349 348 348 347 348 349 348 348 346 346 348 350 351 352 353 353 354 353 352 350 348 347 341 345 347 348 350 357 356 355 355 352 350 353 356 356 357 357
305 306 309 314 320 326 331 333 335 335 335 335 335 335 336 337 339 340 341 342 343 344 345 345 346 346 346 346 346 347 348 348 348 347 347 347 345 346 349 348 347 347 349 349 350 349 348 348 348 347 347 348 349 349 349 348 348 347 349 351 352 353 353 352 351 350 348 347 344 343 344 348 348 348 355 356 355 356 352 352 350 355 356 356 357
303 304 305 311 318 325 327 329 331 332 331 331 331 331 332 333 334 335 335 337 338 340 341 342 344 344 345 345 345 346 346 346 347 347 346 345 346 347 347 347 349 349 349 350 350 349 349 348 348 348 348 347 348 349 349 349 349 349 349 351 351 353 352 351 350 348 347 348 342 341 345 348 348 348 354 356 355 350 351 352 351 354 350 356 353
300 301 303 308 315 324 324 325 328 329 329 328 328 328 329 329 330 331 332 333 334 335 336 338 340 342 343 343 343 343 344 344 345 345 345 345 345 344 344 344 343 346 347 348 348 349 348 348 348 348 348 348 348 348 349 349 349 349 349 350 352 351 351 349 348 345 346 347 346 342 344 348 348 349 353 357 353 348 353 352 351 352 353 354 350
299 300 301 305 313 321 323 323 324 325 327 326 326 326 327 327 327 328 329 330 331 332 334 336 337 336 337 338 339 340 342 343 343 343 343 344 345 344 344 343 344 346 345 346 349 349 349 349 347 347 347 347 348 348 349 349 349 349 350 349 350 351 350 349 346 344 346 346 347 344 343 346 349 349 352 358 351 345 350 345 347 349 350 350 349
298 298 300 302 312 319 321 321 321 322 324 324 324 325 326 326 326 327 327 328 328 329 331 332 331 331 333 335 337 338 340 341 341 341 342 343 343 343 343 343 343 344 344 345 346 347 347 348 347 346 347 346 347 347 348 349 349 349 349 349 349 350 350 348 343 344 345 347 348 346 344 344 348 349 354 356 351 348 349 344 345 348 350 350 350
297 297 299 301 311 317 317 317 318 320 321 322 323 324 324 324 324 325 325 326 327 328 328 327 327 329 331 333 334 334 336 338 339 340 340 341 341 341 341 341 342 342 343 343 344 345 346 347 345 345 345 345 346 347 348 348 348 349 348 349 349 349 348 346 343 343 344 347 348 347 344 345 346 349 355 357 352 351 349 345 349 351 351 351 352
296 297 298 299 302 313 315 315 315 317 319 320 321 322 322 322 323 323 323 324 325 325 325 324 324 326 328 328 327 328 329 331 334 337 337 338 338 339 340 340 341 341 342 342 342 344 344 344 345 345 344 344 346 347 346 346 346 347 349 348 348 348 345 341 343 343 346 348 347 346 345 347 347 349 354 356 354 352 351 348 352 352 353 352 353
295 296 296 298 301 308 312 312 313 314 316 317 318 319 319 320 321 321 321 321 321 321 321 321 322 324 324 323 322 322 324 327 328 329 332 332 334 335 335 337 338 340 340 340 341 342 344 344 343 344 344 344 345 346 347 347 346 346 348 348 348 347 343 339 340 344 345 347 346 346 345 345 348 349 353 356 353 354 352 351 352 349 350 352 353
294 295 296 297 297 300 307 310 310 310 312 314 315 316 317 317 318 318 318 318 318 319 319 319 319 321 322 320 319 319 320 321 322 322 323 323 326 324 325 330 334 337 339 340 340 341 342 342 343 343 343 342 344 345 346 346 347 347 347 346 345 343 340 341 342 343 345 346 347 345 345 346 347 351 351 354 351 354 353 353 351 350 351 353 353
295 294 295 295 296 297 298 305 308 308 308 310 311 312 313 314 314 315 316 316 316 316 316 316 316 318 319 317 316 316 317 318 318 319 319 320 320 319 321 324 325 331 336 337 338 339 340 341 341 340 340 341 342 343 345 346 346 346 345 344 342 340 337 334 341 343 345 346 347 345 344 344 347 352 354 353 353 349 352 351 352 352 352 352 353
295 297 294 294 295 296 296 298 302 304 304 305 308 309 309 310 311 312 312 312 313 313 313 312 313 314 315 314 313 312 312 314 315 315 316 316 316 317 319 320 323 327 329 330 332 334 336 338 339 339 339 340 341 342 344 345 345 344 343 342 341 339 335 331 339 342 343 343 344 346 344 345 345 351 355 354 353 349 350 352 352 351 354 352 354
294 294 293 293 293 295 296 295 295 296 296 299 302 307 307 308 308 309 309 309 310 310 310 309 310 310 311 310 309 309 309 310 311 312 313 313 312 313 315 318 321 324 325 325 326 325 327 330 334 337 339 339 339 340 341 343 344 343 341 340 339 338 334 331 338 340 341 340 342 341 341 341 344 350 355 352 352 354 351 351 351 352 353 354 354
292 292 293 292 292 293 294 294 295 294 295 294 294 298 305 305 306 306 307 307 307 308 307 307 307 308 309 308 307 306 306 306 307 308 309 309 309 309 312 315 318 320 320 320 321 323 326 327 328 330 334 337 338 338 339 340 341 341 340 338 335 332 328 330 338 340 339 340 341 342 342 341 344 349 354 354 352 354 351 351 351 351 351 354 353
292 292 292 292 291 292 293 293 294 293 294 294 294 294 302 302 303 304 305 305 305 306 306 305 304 304 305 306 304 302 301 300 304 303 306 307 306 306 309 311 315 316 316 316 318 320 323 324 325 325 327 329 332 332 332 335 337 338 337 335 332 327 335 336 337 339 340 340 339 341 340 342 346 350 352 353 352 351 351 352 351 351 350 353 353
292 290 291 291 291 291 291 293 293 292 293 294 294 294 298 299 297 300 301 302 303 303 303 302 301 300 302 303 301 297 296 297 297 299 303 301 304 305 307 309 311 312 312 313 315 318 320 321 321 322 321 323 324 328 329 331 334 334 333 331 327 333 336 336 337 337 339 340 339 341 340 342 346 349 351 352 353 353 352 351 352 352 349 351 353
288 290 290 290 290 290 290 292 292 292 292 294 294 295 294 296 292 293 296 297 299 299 296 296 299 294 300 298 296 297 296 295 297 302 298 300 299 304 305 307 308 308 309 310 311 314 317 318 318 318 317 316 316 319 324 326 328 330 329 325 330 334 335 336 336 337 337 339 338 339 339 342 346 349 350 350 351 352 351 351 349 349 348 347 353
287 287 289 289 289 289 289 290 291 291 291 292 293 294 292 291 291 292 294 296 296 296 292 294 292 293 295 296 297 295 295 295 297 301 301 301 300 303 304 304 305 305 306 306 308 311 314 314 315 314 313 311 309 313 316 321 324 323 323 329 331 333 334 335 335 336 337 337 337 336 339 342 346 349 350 351 347 349 351 351 352 347 346 347 353
286 287 288 290 289 289 289 290 291 291 290 291 292 291 291 291 291 291 291 291 292 293 291 292 292 292 293 295 295 295 294 294 300 300 299 295 296 300 301 301 302 302 304 301 304 307 310 311 311 310 308 307 306 308 310 314 318 322 326 330 332 332 333 333 333 334 335 335 337 335 338 342 345 348 350 351 351 350 349 349 351 350 346 345 350
285 289 288 288 288 288 288 288 290 290 290 290 291 291 292 290 290 291 291 290 291 290 290 291 291 292 292 294 294 294 294 293 294 294 294 294 294 295 295 295 295 295 301 295 298 301 304 303 303 304 302 303 303 304 306 308 311 315 319 324 328 331 331 331 332 333 334 335 335 333 335 340 344 347 350 351 351 350 348 349 351 351 349 345 346
287 285 285 286 287 288 287 287 289 289 289 289 290 293 291 290 290 291 291 290 291 290 290 290 291 291 292 293 294 292 292 293 293 293 294 294 293 294 294 294 294 294 296 295 297 300 301 301 301 301 301 301 301 302 304 305 308 311 314 318 323 327 330 331 332 333 333 334 334 331 333 337 342 346 348 351 351 349 349 348 350 350 350 351 352
284 285 285 285 289 287 287 287 288 289 289 289 289 289 289 289 289 292 291 289 291 290 289 289 290 290 291 292 292 290 291 291 292 292 292 293 293 293 293 293 293 293 294 295 296 299 300 300 300 299 300 300 300 301 303 305 307 308 311 315 320 324 327 330 331 332 334 334 331 329 331 333 340 344 346 348 349 348 349 348 349 349 351 351 352
284 284 285 285 287 286 287 286 288 289 288 289 289 289 288 289 290 292 289 293 291 289 289 289 290 289 291 290 293 290 290 290 291 291 291 292 292 293 292 292 292 292 294 295 296 297 298 299 299 298 299 299 299 301 302 304 305 307 309 312 316 320 325 328 330 331 331 334 334 330 330 332 335 339 345 347 348 349 349 349 350 350 346 351 350
284 284 285 285 285 289 287 285 286 287 288 288 288 288 288 288 288 288 287 294 289 288 289 289 289 289 289 290 291 289 289 290 290 291 291 291 292 292 291 291 292 292 293 294 295 296 297 297 298 298 298 298 299 300 301 302 303 304 306 308 312 315 319 324 328 329 330 331 334 332 329 331 335 338 340 345 347 347 349 346 350 350 347 347 350
284 284 284 285 285 287 285 286 286 288 288 287 287 288 288 287 288 288 287 291 287 288 289 288 288 287 288 289 289 290 289 289 289 290 290 290 291 291 291 291 291 292 292 293 295 296 296 297 297 298 298 298 299 299 300 301 301 303 304 306 308 310 313 318 322 326 329 330 332 332 327 328 332 337 339 341 345 345 343 347 349 350 348 350 348
286 283 284 284 289 285 285 286 286 290 287 286 287 288 288 286 288 287 287 287 287 289 288 287 288 287 288 288 289 289 291 289 289 290 290 290 290 290 290 291 291 291 292 293 294 295 296 296 297 297 297 298 298 299 299 299 300 301 302 303 304 305 306 310 315 320 324 328 330 332 331 326 328 332 335 339 342 344 344 344 347 348 348 346 346
282 283 284 285 285 284 285 286 285 287 287 286 288 287 287 286 288 286 286 287 288 287 286 287 288 287 288 287 288 288 291 289 289 289 290 289 289 289 290 290 290 291 292 292 293 294 295 296 297 297 298 298 298 298 299 298 298 299 300 301 302 302 304 306 309 314 318 323 328 331 332 331 326 327 330 335 340 342 344 344 344 346 346 346 348
283 283 283 285 284 284 286 285 286 285 285 285 285 286 286 286 286 286 286 288 286 286 286 286 286 287 287 287 287 288 289 288 288 289 290 288 288 288 288 288 289 290 290 291 292 294 294 295 295 296 296 297 297 297 298 298 298 298 299 299 300 300 302 305 306 309 313 317 323 327 330 330 330 325 325 328 333 338 340 342 342 344 346 344 347
282 282 283 283 286 286 287 287 288 284 287 285 288 285 285 285 288 285 287 286 285 285 286 286 286 287 286 286 287 287 288 288 288 288 288 287 287 287 286 287 287 288 289 289 289 291 293 294 294 295 296 296 295 296 296 296 297 297 297 298 299 300 301 303 304 307 310 313 317 322 326 329 330 330 329 325 325 329 335 339 341 341 342 344 347
285 281 282 282 283 283 288 284 288 284 284 283 285 285 286 285 284 284 285 285 286 285 285 285 285 285 286 285 286 287 288 287 287 287 286 286 285 285 286 286 287 287 287 288 288 289 291 292 293 294 294 294 295 296 296 296 296 296 297 298 298 299 300 301 303 305 307 310 315 318 322 326 328 329 329 329 321 321 327 333 338 340 341 342 345
281 281 283 283 282 282 286 283 284 283 283 285 285 284 284 284 284 287 286 285 285 284 284 284 285 284 285 285 285 286 287 286 286 286 285 285 285 284 285 286 286 286 286 287 288 288 289 291 292 293 293 294 295 295 296 295 296 296 296 297 298 298 299 300 301 303 305 308 312 316 320 323 326 327 323 328 329 325 321 325 332 336 337 339 342
280 280 281 281 281 281 285 283 283 283 283 282 283 283 284 283 283 284 284 284 284 283 284 284 284 284 284 284 284 286 286 285 285 285 284 284 284 284 284 284 285 285 285 286 286 288 287 288 290 293 294 293 294 294 295 295 295 296 296 296 297 298 298 300 300 302 304 306 308 312 317 320 322 319 326 327 328 329 323 321 326 329 330 335 339
281 282 280 281 281 281 281 284 284 284 283 283 284 283 283 283 283 283 286 284 283 283 283 284 283 283 283 284 284 285 286 284 284 284 283 284 283 283 283 283 284 284 284 284 285 286 286 287 288 290 293 294 294 294 294 295 296 296 296 296 297 297 298 299 300 300 302 303 305 309 312 317 321 324 326 327 327 329 330 325 320 322 322 327 335
280 279 279 279 280 280 283 283 285 282 282 282 283 284 283 282 282 282 282 282 282 282 283 283 283 283 283 284 284 284 285 284 284 284 283 283 282 282 282 282 283 283 283 283 283 285 285 286 285 286 289 292 294 295 295 295 295 295 295 296 296 297 298 298 299 299 301 303 304 307 311 315 318 322 325 326 327 328 329 330 328 327 328 322 331
278 278 281 279 279 279 280 280 282 281 281 282 282 281 281 282 281 281 281 282 281 283 283 282 283 282 284 284 283 283 283 284 283 282 282 282 281 281 281 282 282 282 282 282 282 283 284 284 285 286 286 289 292 294 295 294 294 294 295 295 296 296 296 297 297 299 300 302 304 307 310 313 316 319 323 326 327 328 329 330 325 328 328 326 324
278 278 279 279 279 280 282 280 280 281 282 281 281 281 280 280 280 280 280 280 281 283 282 282 282 282 283 283 283 283 282 282 283 282 281 282 281 281 281 281 281 282 282 282 283 283 284 285 286 286 286 287 290 293 294 295 293 292 294 293 294 295 296 296 296 297 298 301 304 306 309 313 315 318 321 325 327 328 329 330 330 329 328 328 326
279 278 279 280 279 279 279 280 280 280 280 280 282 282 280 280 280 280 279 280 280 280 280 281 282 284 282 282 282 282 282 281 282 281 281 280 280 280 280 280 281 281 282 283 284 285 285 285 285 285 286 287 288 293 295 294 291 289 288 289 291 293 294 294 294 295 297 299 301 304 308 311 314 317 321 324 326 328 329 330 330 329 329 328 327
280 280 279 278 278 278 279 280 280 280 280 281 282 280 280 281 280 280 280 279 280 281 281 282 282 282 281 281 282 281 281 281 281 282 281 281 280 280 280 280 281 282 282 282 283 282 283 283 284 284 284 287 288 291 292 293 289 290 291 289 287 287 291 293 295 297 299 301 303 305 308 310 313 316 319 322 325 327 328 329 329 329 329 328 327
279 278 278 278 279 281 279 279 279 280 280 280 285 281 281 282 281 280 280 280 279 283 282 281 280 280 280 281 280 281 281 281 281 280 281 280 280 280 280 280 281 282 281 280 280 280 281 282 283 284 286 285 287 288 291 292 292 291 286 287 287 288 285 287 289 295 302 305 307 309 310 311 313 315 318 319 322 325 327 328 329 329 329 328 327
278 279 278 278 280 279 279 279 279 279 279 283 282 281 282 279 279 280 280 280 280 279 278 278 279 280 281 279 279 280 280 280 280 280 281 280 280 280 280 280 280 280 280 280 280 280 281 282 283 284 286 287 286 288 290 292 292 294 291 288 285 285 285 287 290 290 294 296 299 303 306 310 313 314 316 318 321 323 325 326 327 328 329 329 328
278 279 279 279 278 279 278 278 278 278 279 279 280 281 280 278 277 277 277 277 276 277 277 277 278 278 278 279 279 279 279 279 279 279 279 280 280 280 280 280 279 280 280 280 280 280 280 280 282 283 284 285 285 286 286 290 293 293 294 294 292 287 286 287 288 284 290 295 295 296 297 300 302 307 312 315 317 320 321 323 325 325 327 328 328
279 278 277 277 277 277 277 278 277 278 279 279 279 282 277 278 277 277 277 276 275 276 277 278 277 278 278 278 278 279 279 279 279 279 279 279 280 280 279 279 279 279 280 279 278 279 279 280 282 282 282 284 285 285 285 287 291 293 294 295 295 294 294 290 286 288 286 290 292 293 296 300 303 304 306 310 312 315 318 319 322 324 325 326 327
279 277 277 277 277 277 277 277 277 280 279 278 278 279 278 277 277 276 278 277 276 276 277 277 278 279 278 278 278 278 278 278 279 279 279 279 280 279 279 279 279 278 279 278 278 279 280 280 281 281 281 281 282 283 286 288 287 287 292 293 294 294 294 294 293 290 288 286 288 292 295 297 299 299 301 303 307 311 314 317 320 322 324 325 326
277 278 278 278 277 276 277 277 277 277 277 277 279 277 279 278 276 276 275 277 277 278 278 279 277 277 276 277 277 277 277 278 278 278 278 279 280 279 279 278 278 278 279 279 278 279 279 279 279 279 279 281 283 286 286 286 286 286 288 289 291 292 293 294 295 293 290 289 289 290 291 295 298 300 302 304 307 309 311 315 318 319 320 323 326
277 278 277 276 276 275 277 277 275 276 276 276 276 276 276 278 276 275 275 275 276 276 276 275 275 276 275 276 276 276 277 277 277 278 278 278 278 278 278 278 278 278 279 278 278 278 278 279 279 280 280 281 282 282 283 285 286 287 287 288 287 289 290 291 292 292 292 292 287 288 291 292 291 295 300 304 307 309 311 313 315 318 321 323 325
276 275 276 275 275 275 275 275 275 275 276 276 275 275 276 276 275 275 275 275 275 275 275 275 275 275 275 275 275 276 276 276 277 277 277 277 277 278 278 277 278 279 278 277 277 277 278 279 280 280 280 279 279 279 281 284 286 286 286 287 288 287 288 288 290 290 291 290 290 290 292 293 292 293 296 299 302 307 311 313 314 316 319 322 324
Wind_Speed
12 13 11 12 16 17 18 18 18 18 14 12 10 9 11 9 10 8 8 6 9 6 6 6 6 6 6 6 6 7 7 6 7 8 7 7 8 8 9 10 9 9 9 8 8 8 8 8 9 9 9 9 10 9 9 9 9 9 11 10 10 9 7 8 9 9 8 9 9 10 10 10 10 9 10 10 10 9 12 12 12 9 7 8 12
12 11 7 10 16 16 19 19 19 19 18 17 13 12 10 10 8 8 9 10 10 8 8 8 8 8 7 7 8 8 7 8 7 7 8 8 8 8 8 9 10 10 10 11 10 9 8 9 9 10 9 9 10 10 10 9 6 6 7 9 10 9 8 8 8 8 8 8 8 8 9 9 10 10 10 10 11 11 11 12 13 9 6 9 13
8 6 8 11 15 16 17 19 19 18 19 17 17 18 16 13 11 11 11 10 11 12 11 13 10 8 9 9 10 8 8 10 10 9 8 8 8 7 7 8 9 10 10 10 10 11 10 9 9 9 9 9 9 10 10 10 8 6 6 7 9 10 10 9 7 7 8 8 8 9 10 8 9 10 10 10 11 13 11 11 12 12 7 13 12
8 9 8 9 13 15 17 17 18 19 19 19 19 19 18 19 20 18 13 11 10 10 10 10 12 14 13 12 10 10 10 12 12 11 11 10 9 7 7 7 9 9 10 10 10 11 11 11 11 10 9 8 10 10 11 10 9 7 5 7 8 9 9 9 7 7 8 8 8 7 4 3 6 8 10 10 12 12 12 12 12 13 12 14 15
7 7 7 7 9 12 17 17 18 18 18 19 19 20 20 20 20 19 18 17 14 12 11 10 11 11 11 12 14 14 14 13 11 11 14 12 11 9 8 8 8 9 10 11 11 12 12 12 11 11 10 7 7 10 11 10 9 9 6 6 7 9 8 8 7 7 7 7 7 5 4 4 4 6 11 11 12 13 11 12 12 12 14 15 15
7 7 7 7 8 11 17 18 19 19 19 20 20 20 20 21 21 20 20 20 19 18 16 15 14 14 13 13 13 13 11 12 15 17 16 15 13 10 9 7 7 10 13 12 12 12 12 12 12 12 12 9 7 8 9 11 11 10 9 7 6 7 8 7 8 7 7 7 6 3 4 4 4 4 10 11 12 12 11 13 14 12 12 15 15
5 6 7 8 8 11 17 18 19 20 20 20 21 20 20 20 20 20 21 21 21 20 19 19 18 17 17 17 16 15 15 15 13 13 15 14 17 16 10 8 9 11 11 13 12 12 12 12 13 13 13 11 10 8 8 10 10 10 9 9 7 7 8 7 6 7 7 6 1 2 3 4 5 5 10 12 12 12 12 13 12 12 10 14 16
6 7 7 7 7 11 18 19 20 20 21 21 21 21 21 20 20 20 21 21 21 21 21 21 20 21 20 19 19 18 18 17 15 14 13 14 9 11 16 12 12 11 10 12 13 13 13 13 13 13 14 14 10 10 8 9 10 10 10 9 9 7 7 7 7 6 7 4 3 2 3 4 5 5 10 12 12 11 14 16 17 13 14 16 13
8 7 7 7 7 17 18 19 20 21 21 21 21 21 21 21 21 21 21 21 21 21 21 21 22 22 22 22 22 21 20 20 19 17 16 14 13 11 10 15 16 15 15 14 14 14 14 13 13 13 14 14 12 10 9 9 10 9 9 10 9 8 8 6 6 7 4 3 3 4 4 4 5 5 9 13 5 8 16 14 17 16 19 16 15
6 6 6 6 8 17 19 20 20 21 21 21 21 21 21 21 21 21 21 21 21 22 21 21 21 21 21 22 22 22 21 20 20 20 18 17 16 16 14 15 16 14 17 18 16 14 15 15 14 14 14 15 13 10 11 13 12 11 10 10 10 9 8 7 6 6 4 3 4 5 6 7 6 5 8 12 10 14 17 14 9 12 10 10 14
6 6 6 7 10 17 19 19 20 20 20 21 21 21 21 21 21 21 21 21 21 21 21 22 22 22 22 22 22 22 22 22 23 22 21 20 19 18 18 17 17 17 17 18 19 19 17 15 16 16 15 15 13 11 10 10 10 11 11 10 9 9 8 7 7 4 4 5 5 6 6 10 7 6 9 12 12 20 18 15 13 13 14 14 16
6 5 5 6 9 17 18 19 19 20 20 20 21 21 21 21 21 21 21 21 21 21 21 22 22 22 22 23 23 22 22 23 22 22 22 22 21 21 20 19 19 18 18 19 19 17 20 21 18 17 17 15 13 11 9 10 13 12 11 11 10 9 8 8 6 5 5 6 7 7 6 8 8 8 15 14 16 20 16 16 16 17 16 16 17
6 5 5 5 6 14 17 18 19 19 20 20 20 20 21 21 21 21 21 21 21 21 21 21 21 21 21 22 22 22 21 21 22 23 23 22 22 22 22 21 21 19 19 19 19 20 18 19 19 19 18 16 12 10 11 10 12 13 11 9 10 10 9 8 5 6 6 6 7 7 7 7 8 12 15 17 17 19 18 17 16 17 16 18 16
5 6 5 5 5 11 16 17 19 20 20 20 20 20 20 21 21 21 21 21 21 21 21 21 21 21 21 21 21 22 22 21 21 21 22 22 23 23 23 22 21 21 20 20 19 19 20 20 20 19 19 17 13 12 12 11 11 13 12 11 9 10 10 7 6 6 7 8 7 8 8 7 7 12 16 16 16 18 16 18 17 19 17 17 17
5 5 4 4 5 6 13 16 17 19 20 20 20 20 21 20 20 21 21 21 21 21 21 21 20 20 20 21 21 21 20 21 21 21 21 21 21 22 22 22 22 22 21 21 21 21 20 19 19 21 20 19 16 14 12 11 11 12 12 12 10 9 10 6 5 5 7 7 7 8 9 8 11 15 18 18 18 16 16 17 19 20 19 17 17
3 4 3 4 5 5 6 11 15 16 18 19 20 20 20 20 20 20 20 20 20 20 20 21 21 20 20 20 21 21 21 20 21 21 21 21 21 22 21 21 21 22 22 22 21 21 21 20 20 18 19 20 19 17 14 13 12 12 13 14 13 10 10 8 6 6 6 8 7 8 8 8 13 16 16 19 19 10 14 19 20 21 20 19 18
4 4 5 5 5 5 6 6 9 13 13 15 17 18 19 19 19 19 19 19 20 20 20 20 20 20 20 20 20 20 20 20 20 21 21 21 22 22 21 21 21 20 21 22 22 22 22 21 20 19 18 18 19 19 16 14 13 13 13 13 13 12 11 9 6 6 6 6 7 8 8 8 13 17 17 20 20 17 21 18 18 18 17 18 19
3 4 5 4 5 5 5 5 6 6 6 9 12 16 17 18 18 18 18 18 18 19 19 19 19 19 18 18 18 18 19 19 19 20 21 21 22 22 21 21 21 20 21 21 22 22 22 21 21 21 20 19 18 19 18 15 14 13 12 13 14 14 12 10 6 6 6 6 7 6 6 10 14 16 18 21 20 18 21 18 17 18 17 18 18
3 4 4 5 5 4 5 5 6 5 6 6 6 8 14 15 16 17 17 18 18 17 17 17 17 17 17 17 16 15 15 16 17 18 19 20 20 20 21 21 22 22 21 21 22 21 22 21 21 21 21 20 19 18 18 19 17 14 13 12 13 14 14 8 6 6 7 6 7 7 7 12 14 20 20 22 21 19 20 19 20 19 19 20 20
3 4 4 4 4 5 4 5 6 5 5 5 5 5 8 12 12 13 14 15 16 16 15 14 13 13 13 13 13 10 10 8 14 11 16 18 18 17 20 21 21 22 23 23 22 22 21 22 22 22 22 22 21 20 19 18 17 17 16 15 12 14 10 6 7 8 7 7 8 7 10 15 20 21 23 22 21 21 21 20 21 20 24 24 22
3 4 4 5 4 5 5 6 5 5 5 4 4 4 5 9 7 9 11 12 12 13 13 11 10 9 9 8 7 7 7 7 8 8 10 10 15 16 19 20 21 21 22 22 23 23 22 21 21 22 22 22 20 17 14 16 16 15 16 17 17 10 8 8 8 7 7 7 8 8 14 16 18 21 24 23 22 22 21 21 19 21 23 26 23
4 5 4 5 5 5 4 5 5 5 4 5 4 4 4 6 5 4 4 6 7 8 6 5 7 5 7 6 5 6 6 5 6 9 8 9 9 15 17 19 20 20 20 21 21 21 22 22 21 21 21 20 21 11 11 13 15 14 14 16 13 9 9 9 9 8 9 8 7 10 14 17 20 22 24 25 22 21 22 21 23 26 24 27 23
4 5 5 5 4 3 4 5 4 4 4 4 3 3 4 4 4 4 4 5 5 4 4 4 4 5 5 4 5 5 5 4 6 7 7 11 11 15 16 18 19 20 20 20 19 20 21 20 21 21 21 19 12 9 9 9 10 14 13 10 9 9 10 10 9 9 10 9 9 13 16 20 21 23 25 24 24 23 21 24 26 30 31 28 23
1 2 3 3 4 4 3 3 3 3 4 4 4 4 4 4 4 4 4 3 4 3 3 3 3 4 4 4 4 4 4 4 6 9 8 7 8 11 15 15 15 15 19 12 14 15 20 18 18 19 12 8 9 9 9 9 9 9 9 9 9 10 11 10 9 9 9 10 11 15 17 20 21 23 25 26 25 24 24 27 22 21 24 26 22
1 1 2 3 3 3 4 5 3 4 5 6 5 6 6 6 6 5 5 4 4 4 3 3 4 4 4 4 3 3 4 5 4 6 6 7 7 8 9 9 9 9 12 9 9 9 9 9 9 10 8 8 9 9 9 9 9 9 9 9 10 11 11 10 10 10 10 10 11 16 19 20 22 25 26 27 26 25 26 25 25 23 24 25 25
1 4 3 3 3 3 3 4 4 5 5 5 5 5 6 7 7 7 7 7 6 6 6 5 5 4 3 3 3 3 4 4 4 5 6 6 7 7 7 7 8 9 9 9 8 9 9 8 8 8 8 8 7 8 8 8 9 9 9 10 10 10 10 10 11 10 10 10 11 17 19 20 23 23 25 26 26 27 27 25 25 25 25 25 26
3 2 2 2 3 4 6 5 6 6 7 6 6 6 6 5 6 6 7 7 6 6 6 5 5 4 4 4 6 5 5 4 5 5 5 5 5 6 7 6 7 8 8 8 9 8 8 8 8 8 7 8 8 7 8 8 8 10 10 10 10 11 11 11 11 11 11 10 12 18 19 20 23 24 24 26 27 26 29 27 26 28 26 26 25
1 1 2 3 4 5 4 4 5 5 5 5 4 5 4 5 5 6 6 6 6 6 6 6 5 5 4 4 3 4 5 6 6 6 6 4 5 4 4 5 6 6 7 7 8 9 8 7 8 8 8 7 8 8 7 7 8 8 9 10 11 11 11 11 11 12 12 11 11 15 19 21 22 23 24 28 27 27 28 28 27 27 28 23 23
2 0 1 1 2 2 3 3 3 4 3 3 3 3 3 4 4 4 5 5 5 5 6 6 6 6 4 5 4 6 5 4 4 4 4 6 6 6 6 6 6 6 6 6 7 8 8 8 8 8 8 8 7 7 7 7 7 8 8 10 10 11 11 11 11 12 12 12 11 13 18 20 22 23 24 25 28 28 29 30 28 27 28 30 27
3 2 1 0 2 2 2 3 2 3 2 2 3 3 3 4 4 4 5 5 5 6 5 6 6 5 6 5 5 4 5 5 5 4 5 5 5 5 6 7 7 7 7 8 7 7 8 8 8 8 8 8 8 8 7 7 7 7 7 9 9 10 10 11 12 12 12 12 12 12 19 20 22 23 24 22 28 29 30 30 30 30 32 29 28
2 2 1 1 2 1 2 2 2 3 2 3 3 3 3 4 4 4 4 5 5 6 6 6 6 5 5 5 5 5 6 6 6 6 5 6 5 6 6 7 8 8 8 8 8 8 8 8 8 9 8 9 8 7 7 8 7 7 6 7 8 9 10 10 11 12 13 13 13 13 14 21 21 23 24 23 22 25 28 30 29 30 33 33 31
3 2 1 1 0 1 1 3 3 3 4 4 4 4 4 4 4 4 4 5 5 5 5 5 6 5 4 4 3 4 3 4 4 5 6 6 7 7 7 7 7 7 8 9 10 10 9 9 8 8 8 8 9 7 6 7 8 7 7 8 7 8 8 9 10 11 12 13 14 14 13 14 20 22 24 25 24 25 28 30 30 28 29 32 29
2 1 0 0 2 1 3 3 3 4 4 3 4 3 3 3 4 4 4 4 5 5 5 5 6 5 3 3 3 4 3 4 4 5 6 6 6 7 7 7 7 7 8 9 11 10 9 9 10 8 8 8 9 9 7 7 8 7 7 8 8 8 8 8 9 11 11 12 13 14 13 13 14 18 23 24 24 24 27 27 30 30 29 33 32
3 1 1 2 1 1 2 2 3 4 3 3 2 3 3 3 3 3 3 3 3 4 5 5 5 4 3 3 3 4 4 5 5 6 6 7 7 7 8 7 7 8 8 8 9 9 9 9 10 10 9 9 9 9 8 9 8 7 7 7 7 8 8 9 9 10 11 11 12 13 14 13 13 13 14 21 23 23 25 26 26 28 31 31 30
3 2 3 1 2 2 1 2 1 2 2 2 2 3 3 3 3 2 2 2 3 4 5 5 5 4 2 2 3 4 4 4 5 5 5 5 5 6 6 7 8 8 8 8 8 8 9 9 9 9 10 10 10 9 9 10 9 10 8 7 8 8 9 10 10 10 11 11 11 13 14 14 13 13 14 12 16 23 24 26 26 26 28 31 32
4 4 2 1 2 0 0 1 0 1 2 2 3 2 3 3 3 3 2 2 3 4 4 5 5 4 2 3 4 4 3 4 4 3 3 4 5 5 6 6 7 8 8 8 8 9 9 9 9 9 11 11 10 12 8 10 9 11 9 9 9 8 10 10 11 10 10 10 11 12 13 13 15 14 15 13 12 13 22 25 27 26 30 31 32
5 5 5 3 3 1 1 1 0 1 2 3 3 3 3 3 3 3 3 3 3 4 4 5 5 4 3 3 3 4 4 4 4 3 3 4 4 5 6 6 6 7 7 8 8 8 9 10 10 9 9 12 11 12 11 9 10 11 11 10 10 10 11 10 11 11 10 11 12 13 13 14 15 18 15 14 13 12 15 22 26 28 27 31 33
4 5 5 6 5 3 2 2 2 2 2 2 3 3 3 3 3 2 3 3 3 4 4 4 5 5 2 3 3 4 4 4 4 4 4 5 5 5 6 6 7 7 7 7 8 7 8 9 11 10 10 10 11 11 11 9 10 11 12 13 13 11 11 11 11 12 11 13 12 13 14 13 13 16 16 15 15 13 12 16 24 28 29 29 31
4 5 4 3 2 4 2 2 2 2 2 2 3 3 3 4 4 3 3 3 3 3 3 4 5 5 2 2 2 3 4 4 4 4 5 6 7 7 7 7 7 7 7 7 7 7 7 8 10 12 11 11 12 11 11 10 11 12 13 15 13 14 13 12 12 11 12 13 14 14 12 13 13 14 16 16 15 14 14 13 12 14 20 30 30
5 4 4 3 3 2 2 2 3 3 2 3 2 3 3 3 4 4 2 2 3 4 3 4 5 5 3 1 2 3 3 3 3 3 3 5 6 6 7 7 7 8 9 9 8 7 9 9 10 11 13 12 11 11 10 10 11 13 15 14 14 14 15 13 13 13 12 13 14 13 13 13 13 15 17 17 15 15 14 14 12 14 15 22 29
4 4 4 4 5 4 4 4 3 2 2 2 2 1 2 4 2 2 5 5 5 4 5 4 4 5 2 1 2 2 3 3 4 4 5 6 6 6 7 7 7 7 8 8 9 10 9 9 9 9 12 14 11 8 9 8 11 14 11 13 15 12 14 14 15 16 15 14 13 13 13 13 13 14 15 16 16 16 15 14 14 14 15 14 17
5 5 6 7 5 3 4 4 2 3 3 3 2 1 2 1 1 5 4 6 7 6 6 6 6 5 3 3 4 3 4 5 5 4 5 5 7 7 7 7 7 7 8 8 8 9 9 8 8 10 7 11 12 8 8 7 9 10 13 14 14 13 11 14 16 16 15 13 13 14 14 14 15 15 14 15 16 16 15 14 14 15 15 14 13
9 8 6 3 4 4 5 4 3 3 4 3 2 2 2 2 2 4 3 5 5 5 5 6 5 5 5 5 5 5 6 6 6 6 5 5 6 7 7 7 6 7 7 7 6 8 8 10 10 10 11 8 10 9 9 7 12 10 10 12 15 15 12 8 9 11 12 12 12 13 15 16 17 15 13 14 15 15 15 15 15 15 15 15 14
6 5 4 6 4 5 4 4 4 3 3 3 3 3 3 3 3 4 5 5 6 5 5 5 4 3 5 4 3 3 4 6 6 6 6 6 6 7 7 7 7 6 8 9 8 8 8 8 9 12 11 13 9 9 7 9 9 9 10 8 10 9 16 13 4 6 7 8 8 10 11 14 14 14 12 14 15 15 15 15 16 16 16 15 14
7 7 6 6 5 6 5 4 4 4 3 3 3 2 2 2 3 4 5 5 4 5 5 5 5 3 3 3 4 3 5 6 6 6 6 6 6 6 7 8 8 7 7 8 8 8 8 8 10 11 12 10 13 12 10 10 12 11 12 10 10 10 12 15 11 11 9 10 11 9 7 11 13 12 12 13 15 15 15 15 15 14 15 16 16
8 8 6 6 4 4 3 3 3 3 4 3 3 2 2 1 2 4 6 4 7 7 7 9 9 8 8 5 5 4 4 5 5 5 5 5 5 6 7 8 7 7 7 7 8 8 8 9 9 10 13 12 12 13 14 11 12 14 16 17 13 12 10 8 9 15 5 7 10 11 13 13 11 10 8 9 13 14 13 15 15 14 14 14 15
9 6 5 4 3 3 3 3 3 3 2 2 2 3 2 2 2 2 3 3 4 4 4 5 6 6 4 6 6 5 5 6 6 6 6 6 6 7 7 7 7 6 7 7 8 8 8 8 8 8 10 11 12 13 15 13 11 12 14 17 17 15 13 10 12 12 18 12 8 7 9 9 9 8 8 9 12 12 12 13 15 16 14 13 14
8 6 5 4 5 4 4 3 2 2 2 2 2 3 2 2 2 3 3 3 3 6 6 6 5 4 6 7 6 6 6 5 7 6 6 6 7 8 7 7 7 7 7 7 9 9 8 8 8 9 10 11 14 15 15 12 11 11 11 12 14 14 14 16 16 15 15 16 19 10 9 11 9 10 10 11 11 12 14 14 15 15 14 15 14
6 8 7 6 3 2 3 2 2 2 2 2 2 2 3 2 3 3 4 4 5 6 6 5 5 4 6 6 6 6 6 6 6 7 7 7 7 8 7 7 7 8 7 8 8 9 10 10 9 9 11 12 12 13 12 13 12 13 11 12 13 13 13 14 14 13 11 13 16 17 13 7 8 10 9 10 11 11 13 15 15 16 14 15 15
7 6 4 3 2 2 3 3 0 2 2 2 2 2 2 2 3 3 4 5 4 5 5 6 5 4 6 7 6 6 6 6 6 6 7 7 7 7 7 7 8 8 8 8 9 10 11 11 11 11 13 14 12 13 15 14 13 13 12 12 12 12 14 14 15 14 14 17 19 19 12 11 13 13 9 9 11 10 12 14 15 15 15 14 14
5 6 5 4 3 2 2 1 1 2 2 2 2 3 2 2 3 3 3 5 6 6 7 7 6 6 8 8 7 7 7 7 7 7 7 7 7 7 8 8 8 8 9 9 9 10 11 12 13 14 15 13 12 15 19 19 14 13 13 12 13 15 14 15 13 12 12 12 13 16 11 9 12 17 14 11 12 12 12 13 14 15 16 15 14
Wind_Direction
342 337 325 350 9 16 23 28 29 27 35 25 18 343 342 321 317 277 279 257 279 259 253 261 262 259 266 270 272 273 279 283 293 301 302 304 302 306 304 307 306 305 301 299 297 299 302 303 304 305 306 307 306 308 309 310 314 316 313 313 316 317 287 260 251 251 241 243 238 244 249 251 250 246 237 234 228 224 185 184 172 176 172 176 180
303 314 330 357 11 22 27 29 28 30 34 37 38 34 21 16 6 343 323 304 285 274 267 255 264 267 267 268 265 268 279 292 286 280 281 287 292 291 290 293 298 301 304 305 302 301 302 304 304 302 302 303 306 310 312 312 308 312 310 311 312 315 304 264 250 237 241 240 234 240 246 253 250 241 235 232 232 222 196 185 176 170 180 188 171
279 327 354 358 2 23 30 33 31 28 30 31 36 37 36 30 23 18 6 350 342 327 321 306 276 267 273 279 274 268 283 288 287 278 272 269 268 270 269 274 276 281 288 294 303 307 308 307 307 308 309 310 311 307 308 312 310 303 294 296 306 313 313 286 266 240 235 233 227 234 243 247 245 235 225 225 229 221 202 190 182 171 181 188 165
354 359 347 351 359 16 33 37 39 39 34 33 32 33 33 35 34 33 28 19 10 356 343 327 319 316 310 302 302 301 287 286 289 291 275 263 262 255 253 251 257 266 271 280 290 301 306 309 310 308 307 308 309 306 304 306 307 299 279 287 299 305 312 301 270 263 237 227 228 230 238 242 242 235 227 225 224 221 198 193 186 180 180 185 174
0 349 349 351 6 12 32 38 41 42 42 41 38 35 34 33 33 33 35 33 27 18 13 0 341 333 335 339 328 315 308 297 283 277 280 274 260 254 250 252 250 254 261 276 291 297 301 303 305 307 308 300 295 299 300 299 300 299 281 276 284 295 303 305 291 264 249 234 228 213 218 211 232 249 235 225 223 212 196 199 189 187 183 181 177
348 349 358 2 9 12 31 38 41 41 43 42 42 40 37 36 33 31 33 33 32 30 26 22 20 14 6 360 353 340 329 315 315 301 294 288 271 256 260 275 295 306 293 285 288 293 298 301 302 301 303 297 279 271 281 292 296 297 292 278 268 277 289 294 293 280 259 247 230 189 204 211 218 236 241 230 222 203 195 204 198 193 190 180 179
356 354 4 6 11 17 33 40 42 44 43 43 43 42 41 40 36 35 33 32 30 29 29 29 25 22 19 16 13 6 352 345 336 321 309 303 303 301 290 296 285 262 270 285 286 290 293 298 300 301 300 300 302 295 283 281 286 291 290 278 262 255 272 282 286 285 272 256 200 206 238 225 219 212 234 241 226 200 208 204 217 207 198 184 178
18 13 2 8 11 26 38 41 43 45 44 44 43 42 41 40 39 37 35 34 32 30 29 27 29 26 23 22 21 18 14 8 355 341 337 315 306 310 311 286 273 278 286 285 285 287 291 296 297 299 300 300 296 291 297 303 301 302 296 276 263 247 258 266 273 279 271 249 220 234 243 262 236 227 230 236 236 211 214 208 208 186 212 190 176
25 7 6 8 11 35 40 41 43 44 44 43 42 41 40 39 37 36 35 33 33 29 27 25 27 24 23 23 23 19 16 16 12 8 357 349 345 328 307 299 296 302 301 291 289 291 293 293 295 296 297 297 296 296 296 291 296 301 302 291 257 259 253 252 257 270 273 241 231 227 237 247 253 235 233 232 215 228 219 212 206 197 207 188 170
19 13 10 7 15 37 41 42 43 41 42 42 41 40 39 39 37 36 35 34 32 31 29 28 28 25 22 22 21 17 17 19 16 13 10 10 1 351 337 325 322 321 312 311 298 291 291 293 294 294 295 295 296 298 298 298 296 295 297 295 286 263 251 244 245 254 257 242 229 220 226 238 244 241 236 235 154 218 235 214 215 201 205 196 174
23 16 10 10 19 38 41 42 42 42 42 41 40 40 40 39 37 37 35 35 35 34 32 29 27 25 23 23 22 18 16 17 16 12 13 12 11 7 0 351 339 328 323 321 317 307 292 290 294 297 296 296 296 293 291 293 290 289 288 292 294 277 259 245 233 238 242 237 235 231 222 232 241 234 237 232 169 210 214 210 216 203 192 189 190
22 15 15 14 17 38 43 43 42 43 43 43 42 40 39 38 38 37 36 35 35 34 34 31 28 26 25 24 22 21 19 18 15 14 14 12 10 8 5 2 358 353 342 330 321 318 315 304 298 297 297 296 297 300 299 291 293 289 286 288 290 287 266 249 234 233 233 232 237 237 222 229 235 236 234 229 185 212 208 212 212 206 191 195 190
23 21 16 13 17 34 43 42 43 43 44 44 43 42 41 39 37 36 36 36 36 34 33 31 30 29 28 26 24 22 19 19 18 17 16 13 10 8 5 2 358 355 351 345 337 325 311 304 306 304 300 298 297 292 292 289 286 285 281 277 283 287 279 248 233 229 232 232 233 237 234 227 233 236 236 234 194 205 200 209 214 211 201 196 187
37 21 16 15 20 27 39 42 41 42 43 44 43 43 41 40 39 38 36 36 35 34 33 31 30 30 29 28 25 22 21 19 19 18 18 16 13 10 6 3 360 355 350 348 345 340 329 316 308 306 302 301 298 291 286 282 277 280 280 281 278 281 284 271 240 230 229 231 231 233 235 236 234 233 238 237 218 202 203 205 207 217 212 188 184
49 25 14 21 24 26 30 38 38 39 40 42 42 41 41 40 38 37 37 37 36 33 31 31 30 29 29 28 25 22 20 19 19 17 16 15 14 10 5 3 1 358 355 353 350 345 339 333 322 312 307 303 297 286 275 275 277 277 281 283 278 271 276 275 263 241 232 230 228 229 231 235 239 234 237 240 236 214 202 206 206 202 208 192 187
40 33 27 36 34 35 33 30 36 35 36 37 40 40 40 40 39 39 37 36 35 34 33 30 28 27 28 27 24 22 20 19 17 16 15 14 13 9 5 3 0 358 358 357 353 349 345 341 336 327 314 305 299 289 280 278 276 279 281 283 284 276 269 266 265 256 243 236 227 224 231 233 236 237 237 239 240 216 214 211 210 202 195 197 189
25 19 47 39 36 39 37 34 36 37 32 33 34 38 38 39 39 38 38 36 35 34 33 31 30 28 27 25 23 21 19 18 16 15 14 13 11 7 3 2 0 360 359 357 355 353 350 345 339 333 325 315 304 294 283 280 279 278 279 281 281 282 272 266 256 252 253 248 238 230 232 229 230 235 236 236 235 185 220 207 214 214 196 198 191
21 31 43 40 36 33 37 37 36 33 33 29 25 30 35 36 37 37 37 37 36 35 34 31 29 28 28 26 23 19 18 16 15 14 12 13 10 6 2 1 0 1 359 357 354 352 350 349 346 340 333 325 313 301 291 281 276 276 275 278 282 282 281 270 257 251 249 252 251 248 236 233 227 227 235 239 231 214 213 207 217 220 209 195 190
24 33 44 39 33 31 32 35 35 34 32 33 31 18 31 31 32 34 33 34 35 34 34 31 27 26 24 22 21 20 15 12 12 11 10 10 8 5 2 1 360 360 358 355 353 351 349 349 349 347 342 333 328 319 304 293 284 275 272 273 277 280 280 280 267 252 247 244 246 241 238 242 235 233 233 235 234 226 217 212 210 213 218 203 190
25 31 36 36 33 39 26 32 32 31 30 34 29 24 23 30 27 28 28 30 30 28 26 26 25 22 23 20 16 15 13 11 8 6 5 5 3 3 2 2 0 359 356 353 352 351 351 350 350 350 349 344 338 332 324 309 292 288 286 279 271 273 278 269 262 256 246 245 242 242 240 239 245 241 239 234 231 228 220 214 212 212 213 208 192
18 29 34 19 34 39 27 32 28 23 27 29 30 24 19 31 20 19 23 23 22 20 19 17 18 14 19 17 18 18 11 6 2 5 5 0 357 359 0 2 0 358 355 353 350 349 350 350 350 351 350 348 344 335 329 323 311 295 286 283 277 268 268 268 262 259 249 243 239 244 243 241 245 248 244 236 232 228 221 218 219 216 216 212 193
5 2 17 21 25 29 30 33 21 14 20 27 24 20 16 20 18 11 10 14 7 13 4 10 7 10 11 15 18 15 13 6 1 359 1 359 356 358 358 359 358 357 353 352 349 348 348 348 348 349 350 350 349 346 338 329 322 311 298 285 277 270 266 263 256 257 257 251 244 245 243 245 249 250 251 246 236 231 228 213 209 221 207 217 195
16 6 5 13 12 19 24 26 18 4 14 23 23 16 20 14 11 10 4 5 359 1 360 0 5 5 7 12 16 11 9 6 2 358 356 352 353 356 357 358 356 353 350 350 347 345 346 346 346 346 347 348 349 345 339 332 324 319 310 297 279 273 270 263 257 252 255 254 248 244 245 248 248 246 247 249 244 239 233 230 216 213 220 216 193
328 340 331 356 11 17 7 30 11 1 18 11 17 15 14 9 10 3 1 353 349 351 350 354 2 8 9 12 9 7 6 5 359 358 357 358 354 353 354 354 353 350 347 346 342 341 342 341 342 344 345 346 344 340 335 330 327 320 314 304 292 279 271 267 260 253 251 252 251 247 245 248 248 247 245 246 243 239 240 236 227 219 221 225 205
266 262 11 351 347 10 4 16 357 17 18 10 13 7 3 4 1 358 354 357 347 346 347 351 360 7 7 8 7 6 4 4 3 359 1 357 355 354 352 352 347 345 344 343 338 334 336 336 338 340 340 341 338 335 333 329 324 320 316 308 298 289 278 270 266 259 251 251 250 247 246 246 248 248 246 244 239 236 239 239 229 217 207 216 223
274 49 345 319 344 0 33 359 10 11 20 14 3 353 8 5 354 353 351 351 352 347 348 348 356 356 360 2 7 14 10 8 0 359 359 356 354 354 350 345 343 340 340 336 333 330 330 329 330 332 330 330 329 325 323 323 322 321 316 310 301 292 283 275 270 262 256 250 251 245 245 244 246 247 245 242 240 239 237 239 238 223 219 215 214
7 3 296 302 336 12 14 11 15 2 5 2 357 2 4 351 347 344 354 340 343 340 337 336 337 340 358 2 12 8 8 9 1 357 356 354 350 346 343 341 338 333 334 332 327 325 323 323 323 322 321 321 322 321 320 322 322 319 315 311 306 297 288 280 272 267 260 252 250 245 244 244 244 244 245 243 239 238 240 238 235 233 222 217 215
23 322 319 332 350 3 359 6 10 11 352 353 347 359 347 349 345 347 344 327 336 329 321 321 323 340 354 2 14 16 10 1 357 354 351 347 344 331 326 330 330 326 322 323 320 321 320 318 316 316 317 316 314 317 316 317 317 314 311 311 311 306 299 289 278 268 263 258 250 247 243 244 243 242 243 245 239 237 238 236 238 238 237 222 217
135 319 297 323 344 338 353 12 10 10 351 333 345 331 343 347 350 344 333 321 325 314 311 317 329 332 340 354 1 6 8 8 357 346 335 344 338 340 337 332 328 322 322 316 313 314 316 316 314 309 310 311 309 309 311 310 309 310 309 310 310 309 306 299 292 282 270 261 256 250 246 242 244 244 241 242 241 236 233 236 238 237 236 232 219
178 222 260 281 304 333 5 14 9 355 336 350 351 345 355 348 341 334 318 328 321 314 317 319 313 324 336 349 356 4 4 360 349 342 348 337 330 329 336 336 332 327 326 320 316 309 308 310 307 307 305 302 303 301 302 302 301 300 302 303 306 308 307 305 298 291 283 272 263 257 250 245 243 245 244 238 242 243 240 231 233 235 235 232 227
165 214 224 299 312 351 23 12 13 11 9 20 343 344 348 349 329 320 320 323 320 320 319 314 316 326 333 342 358 4 2 1 357 349 348 343 341 342 340 335 334 333 329 319 316 312 305 299 300 299 301 299 293 293 294 293 292 293 291 292 297 300 300 301 299 292 286 280 272 262 253 246 241 241 245 241 236 243 241 240 234 234 236 236 230
171 166 185 275 326 52 35 31 20 15 25 2 354 349 346 330 322 325 327 324 330 325 317 316 316 322 327 350 0 0 7 356 351 348 348 347 348 349 341 341 335 330 330 324 318 313 308 299 291 287 287 289 289 285 279 282 286 284 287 287 288 287 291 296 295 294 289 284 277 267 256 249 242 238 242 243 237 234 242 239 237 236 236 238 232
214 157 215 199 80 29 52 15 22 25 22 357 340 324 317 319 318 322 318 328 327 319 313 312 312 311 326 350 1 357 359 357 355 357 355 353 347 341 342 336 332 330 325 320 315 310 307 307 302 295 290 285 284 284 278 274 278 280 280 284 286 281 281 284 286 290 288 284 279 273 264 253 247 242 239 242 239 236 239 241 235 235 235 233 231
159 207 212 94 35 46 35 28 28 19 351 334 324 315 305 300 301 301 313 324 309 307 298 299 295 300 318 342 0 353 357 0 6 3 358 352 348 343 339 335 332 329 322 320 318 312 304 301 300 305 300 295 290 284 283 281 274 273 274 280 279 283 282 277 277 281 285 281 280 276 270 261 250 246 242 238 238 237 238 237 236 233 235 237 234
124 152 119 104 50 34 29 39 15 345 328 312 298 290 287 292 301 302 306 309 299 295 294 294 285 285 301 341 2 353 357 2 7 5 351 348 341 334 331 329 328 325 320 317 312 309 302 299 300 295 291 292 288 285 283 279 282 280 277 277 279 287 284 278 276 274 276 281 277 275 270 266 257 251 247 245 234 233 236 240 236 232 235 238 236
163 149 127 95 87 59 7 125 288 293 273 268 280 276 289 299 301 300 311 293 292 285 286 285 284 292 329 360 4 353 2 1 2 359 352 346 337 333 326 325 326 321 316 312 311 311 311 303 298 296 298 289 290 290 281 283 283 282 279 278 280 279 279 282 279 272 271 275 273 271 269 266 261 253 250 248 242 232 228 235 240 234 233 236 238
163 158 153 147 149 212 187 201 247 270 282 301 312 307 311 307 305 295 282 285 277 277 279 280 284 298 325 5 357 350 352 351 354 353 356 341 339 333 326 325 325 320 312 311 308 310 314 308 302 293 284 291 287 281 285 283 286 287 289 281 278 279 274 276 280 278 275 265 268 267 267 264 262 258 252 247 245 240 230 227 235 239 234 234 235
175 170 169 164 169 186 217 224 248 260 268 278 291 295 289 289 281 271 271 259 262 258 263 269 283 285 318 2 354 347 344 344 347 348 350 340 336 328 325 325 324 321 317 313 308 306 304 305 306 304 296 288 286 285 284 282 282 287 288 286 286 278 275 275 273 276 270 266 259 257 257 261 259 259 253 248 245 239 236 229 229 236 236 235 236
170 174 175 193 188 217 234 261 249 284 285 282 285 283 288 284 272 272 269 256 263 261 257 281 284 289 317 353 1 348 333 335 339 342 349 341 335 332 328 327 325 320 317 310 307 303 298 300 301 300 296 287 284 283 284 286 285 283 282 282 282 279 278 273 270 267 265 260 258 255 253 251 254 253 254 250 244 241 235 233 229 231 238 234 234
167 168 170 170 194 221 234 276 252 245 264 267 267 279 274 285 307 315 295 253 272 284 273 263 279 288 298 333 342 326 316 320 320 326 331 331 329 325 323 324 325 324 321 319 312 311 304 299 291 292 292 283 274 278 282 287 283 277 278 279 275 277 273 270 268 262 263 259 256 255 252 248 246 252 252 249 245 240 235 232 228 229 232 236 232
177 173 168 193 196 196 174 226 224 228 229 228 251 242 310 329 331 295 292 300 297 289 274 267 274 279 285 292 322 309 307 311 320 332 330 330 324 318 319 320 318 315 309 301 297 293 288 285 289 288 291 289 278 266 270 275 285 286 274 273 279 265 266 269 266 264 256 254 252 251 248 246 244 247 250 249 245 240 237 230 227 228 229 230 231
201 182 190 197 195 192 197 225 227 232 230 219 221 223 199 197 257 285 291 302 307 309 310 320 311 309 316 330 336 330 324 323 322 326 323 320 317 315 310 304 306 297 288 283 283 282 289 288 291 290 275 289 290 285 280 291 275 277 302 300 283 275 263 261 255 254 250 251 252 250 245 241 240 242 244 247 246 241 236 231 226 225 226 225 223
178 189 196 185 209 208 214 222 224 211 229 224 203 224 221 250 209 260 255 280 264 254 258 271 292 303 312 333 335 332 328 321 314 311 308 307 303 303 297 294 289 289 291 288 289 296 295 294 289 285 295 275 279 284 280 257 276 279 276 293 289 313 291 251 256 252 252 244 245 246 246 242 238 235 238 243 245 241 236 231 227 224 224 223 219
182 194 207 210 210 211 211 211 225 221 234 234 216 215 226 245 250 251 262 236 254 265 268 273 276 289 305 314 305 296 298 295 297 296 297 297 294 290 291 291 290 290 293 296 295 291 291 290 289 283 280 290 283 278 265 265 258 275 275 235 279 291 298 283 310 287 259 267 264 262 251 249 247 236 234 237 242 240 236 232 229 225 225 223 219
191 199 199 203 199 204 204 197 211 219 224 231 225 221 251 276 270 268 245 258 263 252 249 250 228 243 275 293 290 274 268 267 269 264 262 268 268 269 279 285 287 287 287 287 290 289 290 286 286 285 286 294 301 297 287 268 257 244 258 276 276 265 253 286 324 280 271 266 256 264 288 277 252 242 233 234 239 239 237 235 231 228 223 221 221
194 205 198 203 190 204 193 208 218 230 232 227 208 197 217 233 308 329 334 332 325 329 330 327 327 332 322 309 294 281 273 268 264 264 254 258 262 267 272 277 278 282 284 286 286 287 281 281 280 287 287 282 278 289 286 280 266 251 242 247 247 259 278 289 322 292 284 247 285 277 271 268 283 288 265 248 242 240 236 235 232 230 223 220 220
205 196 196 204 201 206 193 192 208 227 228 239 202 208 215 211 234 240 235 251 270 264 250 267 274 283 284 295 294 295 286 282 283 276 275 272 280 280 275 273 274 278 286 288 286 280 278 272 279 282 291 298 291 281 281 284 283 266 250 242 245 249 256 269 269 294 286 286 241 255 263 260 263 273 277 263 256 254 248 241 235 230 228 223 219
191 181 194 202 205 200 166 185 211 228 237 242 219 205 219 238 253 257 259 260 243 270 274 267 258 268 287 286 287 282 280 274 277 272 268 275 278 278 276 280 282 281 285 285 284 283 278 272 269 278 285 281 276 271 271 275 280 284 284 268 256 257 254 253 250 254 275 286 288 261 259 275 265 253 255 260 257 255 255 245 240 234 229 223 219
177 182 193 196 187 165 156 171 212 230 251 247 252 220 225 230 235 255 282 267 263 270 275 270 275 274 278 283 280 280 277 270 262 267 268 269 273 276 278 279 284 287 286 285 281 280 277 277 274 272 272 273 269 273 283 281 280 281 286 282 277 266 258 250 248 245 250 277 275 278 281 260 248 249 245 252 254 244 243 245 241 235 227 222 217
190 181 172 148 171 164 151 158 242 231 248 273 244 248 230 231 255 262 271 285 285 290 275 285 290 290 289 288 285 284 282 279 271 265 271 269 273 273 276 281 284 285 284 281 285 285 285 279 272 268 268 270 279 283 278 276 274 274 271 279 277 274 265 257 246 243 248 243 258 269 272 287 288 275 251 251 260 254 246 241 243 239 231 223 217
178 177 177 170 163 161 160 141 222 243 246 252 237 254 242 230 247 261 273 294 302 295 304 306 310 309 302 299 297 292 285 281 278 272 268 274 272 275 280 281 281 281 281 280 278 280 281 279 276 273 271 274 278 278 274 268 264 265 270 269 266 262 258 251 244 240 246 259 275 274 278 263 264 278 270 251 255 256 244 237 236 235 232 227 219